• Join FlightAware (Why Join?)
  • Login
  • US Flag GB Flag 
21:36 EST


 

Airport Tracker/Info


-or-


 

Live Flight TrackerFlight Track Log ✈ CTL18 ✈ 22-Apr-2013 ✈ KYIP - KBKL

Flight Track Log - Related Links

Times and Time Zones

All times are in EDT time to prevent confusion due to time zone crossing. See the CTL18 flight status page for this flight to view local times or setup timezone preferences in your user account.

Time Position Orientation Groundspeed Altitude Reporting Facility
EDT Latitude Longitude Course Direction KTS MPH feet Rate Location/Type
21:13 42.2219 -83.5469 226° Southwest 110 127 1,200  Level Cleveland Center
21:14 42.2067 -83.5686 226° Southwest 121 139 1,900 1,055 Climbing Cleveland Center
21:14 42.1831 -83.5928 217° Southwest 122 140 2,800 569 Climbing Cleveland Center
21:16 42.1489 -83.6275 217° Southwest 156 180 3,000 94 Climbing Cleveland Center
21:17 42.1075 -83.6117 164° South 150 173 3,000  Level Cleveland Center
21:18 42.0708 -83.5875 154° Southeast 149 171 3,000  Level Cleveland Center
21:19 42.0469 -83.5417 125° Southeast 156 180 3,000  Level Cleveland Center
21:20 42.0275 -83.4847 115° Southeast 151 174 3,000  Level Cleveland Center
21:21 42.0100 -83.4281 113° Southeast 155 178 3,000 281 Level Cleveland Center
21:22 41.9989 -83.3800 107° East 137 158 3,600 569 Climbing Cleveland Center
21:23 41.9853 -83.3319 111° Southeast 142 163 4,100 595 Climbing Cleveland Center
21:24 41.9678 -83.2783 114° Southeast 140 161 4,800 406 Climbing Cleveland Center
21:25 41.9547 -83.2217 107° East 158 182 5,000 90 Climbing Cleveland Center
21:26 41.9353 -83.1567 112° Southeast 164 189 5,000  Level Cleveland Center
21:27 41.9178 -83.0975 112° Southeast 162 186 5,000  Level Cleveland Center
21:28 41.9042 -83.0467 110° East 160 184 5,000  Level Cleveland Center
21:29 41.8867 -82.9903 113° Southeast 162 186 5,000  Level Cleveland Center
21:30 41.8653 -82.9169 111° Southeast 162 186 5,000  Level Cleveland Center
21:31 41.8517 -82.8664 110° East 163 188 5,000  Level Cleveland Center
21:32 41.8322 -82.7958 110° East 164 189 5,000  Level Cleveland Center
21:33 41.8125 -82.7422 116° Southeast 163 188 5,000  Level Cleveland Center
21:34 41.7989 -82.6833 107° East 163 188 5,000  Level Cleveland Center
21:35 41.7833 -82.6300 111° Southeast 161 185 5,000  Level Cleveland Center
21:36 41.7656 -82.5708 112° Southeast 161 185 5,000  Level Cleveland Center
21:37 41.7497 -82.5147 111° Southeast 160 184 5,000  Level Cleveland Center
21:38 41.7342 -82.4586 110° East 162 186 5,000 -198 Level Cleveland Center
21:39 41.7183 -82.4025 111° Southeast 166 191 4,600 -397 Descending Cleveland Center
21:40 41.7006 -82.3408 111° Southeast 169 194 4,200 -393 Descending Cleveland Center
21:41 41.6847 -82.2819 110° East 164 189 3,800 -496 Descending Cleveland Center
21:42 41.6647 -82.2258 115° Southeast 163 188 3,200 -496 Descending Cleveland Center
21:44 41.6531 -82.1700 106° East 160 184 2,800 -344 Descending Cleveland Center
21:45 41.6350 -82.1167 114° Southeast 159 183 2,500 -248 Descending Cleveland Center
21:46 41.6211 -82.0636 109° East 149 171 2,300 -99 Descending Cleveland Center
21:47 41.6050 -82.0133 113° Southeast 143 165 2,300 -50 Level Cleveland Center
21:48 41.5911 -81.9631 110° East 141 162 2,200 -99 Descending Cleveland Center
21:49 41.5792 -81.9128 108° East 142 163 2,100 -148 Descending Cleveland Center
21:50 41.5631 -81.8653 114° Southeast 140 161 1,900 -198 Descending Cleveland Center
21:51 41.5425 -81.8233 123° Southeast 139 160 1,700 -149 Descending Cleveland Center
21:52 41.5283 -81.7814 114° Southeast 122 140 1,600 -198 Descending Cleveland Center
21:53 41.5142 -81.7367 113° Southeast 106 122 1,300 -397 Descending Cleveland Center
21:54 41.5083 -81.7033 103° East 85 98 800 -492 Descending Cleveland Center